Miscellaneous Local Product
Issued by NWS North Platte, NE

Home | Current Version | Previous Version | Text Only | Print | Product List | Glossary On
Versions: 1 2 3 4 5 6 7 8 9 10 11 12 13 14 15 16 17 18 19 20 21 22 23 24 25 26 27 28 29 30 31 32 33 34 35 36 37 38 39 40 41 42 43 44 45 46 47 48 49 50
351
AXUS43 KLBF 250910
MISLBF


WESTERN AND NORTH CENTRAL NEBRASKA HOURLY WEATHER ROUNDUP
NATIONAL WEATHER SERVICE NORTH PLATTE NE
400 AM CDT WED APR 25 2018

NOTE: "FAIR" INDICATES FEW OR NO CLOUDS BELOW 12,000 FEET WITH NO
SIGNIFICANT WEATHER AND/OR OBSTRUCTIONS TO VISIBILITY.

NOTE: STATIONS NOT REPORTING VARIABLES SUCH AS SKY/WEATHER OR
PRESSURE ARE PROVIDED BY RAWS AND APRS NETWORKS AND ARE NOT UNDER
NATIONAL WEATHER SERVICE QUALITY CONTROL.

...OBSERVATIONS IN AND NEAR THE EASTERN PANHANDLE OF NEBRASKA...

CITY           SKY/WX    TMP DP  RH WIND       PRES   REMARKS
PINE RIDGE     CLEAR     27  25  92 CALM      30.37F
GORDON         FAIR      30  27  86 W5        30.35F WCI  25
CHADRON        CLEAR     26  23  88 SW5       30.38F WCI  20
ALLIANCE       CLOUDY    27  27 100 W7        30.36F WCI  19
SIDNEY         PTCLDY    27  26  96 W8        30.38F WCI  19
CRESCENT LAKE    N/A     35  30  82 W5          N/A  WCI  31
$$

...OBSERVATIONS IN NORTHERN NEBRASKA AND FAR SOUTHERN SOUTH DAKOTA...

CITY           SKY/WX    TMP DP  RH WIND       PRES   REMARKS
WINNER         FAIR      35  29  78 W6        30.34F WCI  30
VALENTINE      PTCLDY    35  31  85 NW9       30.35F WCI  28
AINSWORTH      CLOUDY    38  36  90 NW7       30.34S WCI  33
O`NEILL        MOCLDY    40  38  93 NW8       30.32F
THEDFORD       CLOUDY    37  34  87 NW3       30.35S
BROKEN BOW     LGT RAIN  40  35  83 NW14      30.31F WCI  32
ORD            CLOUDY    40  38  93 NW10      30.30F WCI  33
ALBION         CLOUDY    41  38  88 N12       30.29S
VALENTINE NWR    N/A     36  33  90 NW6         N/A  WCI  31
HALSEY           N/A     35  35 100 CALM        N/A
BUTTE            N/A     35  32  90 NW3         N/A
CHAMBERS         N/A     40  39  95 CALM        N/A
EWING            N/A     41  38  89 NW7         N/A
$$

...OBSERVATIONS IN SOUTHWEST NEBRASKA AND FAR NORTHEAST COLORADO...

CITY           SKY/WX    TMP DP  RH WIND       PRES   REMARKS
WRAY           CLOUDY    34  32  93 NW7       30.38F WCI  28
HOLYOKE        CLOUDY    36  30  80 NW8       30.38F WCI  29
IMPERIAL       CLOUDY    37  32  82 NW9       30.37F WCI  30
OGALLALA       CLOUDY    37  32  81 NW8       30.36F WCI  31
NORTH PLATTE   CLOUDY    38  34  85 NW7       30.35F WCI  33
MCCOOK         CLOUDY    38  34  85 NW10      30.35S WCI  31
LEXINGTON      DRIZZLE   39  35  85 NW10      30.33S WCI  33
STAPLETON        N/A     35  33  92 CALM        N/A
GOTHENBURG       N/A     37  33  84 NW10        N/A  WCI  30
CALLAWAY         N/A     37  35  94 N12         N/A  WCI  29
$$

...OBSERVATIONS IN CENTRAL LINCOLN COUNTY AREA...

CITY           SKY/WX    TMP DP  RH WIND       PRES   REMARKS
N.P. AIRPORT   CLOUDY    38  34  85 NW7       30.35F WCI  33
N.P. DOWNTOWN    N/A     37  34  89 CALM        N/A
N.P. SOUTHEAST   N/A     37  33  85 CALM        N/A
N.P. HILLCREST   N/A     37  34  90 NW5         N/A  WCI  33
$$

...OBSERVATIONS ACROSS THE ROCKIES AND WESTERN HIGH PLAINS...

CITY           SKY/WX    TMP DP  RH WIND       PRES   REMARKS
RAPID CITY     CLEAR     31  22  69 W3        30.33F
SCOTTSBLUFF    CLEAR     27  26  96 CALM      30.38F
CHEYENNE       CLEAR     26  24  92 W7        30.36F WCI  18
DENVER         MOCLDY    36  25  64 CALM      30.38F
BERTHOUD PASS  FAIR      12   1  62 NW12G25   30.36S WCI  -2
MONARCH PASS   CLEAR     21   5  49 W23       30.47F WCI   5
ASPEN          CLEAR     27  18  69 SW7       30.37S WCI  19
STEAMBOAT      FAIR      27  20  75 CALM      30.40S
LARAMIE        CLEAR     16  14  92 S5        30.36F WCI   9
CASPER         CLEAR     26  22  84 W10       30.35F WCI  16
$$

...OBSERVATIONS ACROSS THE NORTHERN PLAINS...

CITY           SKY/WX    TMP DP  RH WIND       PRES   REMARKS
BISMARCK       CLEAR     33  27  78 CALM      30.27F
FARGO          FAIR      30  28  92 S5        30.28F WCI  25
PIERRE         CLEAR     32  30  92 W7        30.33F WCI  26
SIOUX FALLS    CLEAR     33  27  78 N5        30.28S WCI  29
$$

...OBSERVATIONS ACROSS THE CENTRAL AND SOUTHERN PLAINS...

CITY           SKY/WX    TMP DP  RH WIND       PRES   REMARKS
OMAHA          CLOUDY    46  43  89 N12       30.20F
GRAND ISLAND   CLOUDY    42  38  85 N17       30.29S
KANSAS CITY    CLOUDY    54  43  66 N10       30.12R
WICHITA        RAIN      47  46  97 N10       30.21F
DODGE CITY     CLOUDY    39  35  86 NW15      30.30F WCI  31
OKLAHOMA CITY  CLOUDY    50  43  77 N26G35    30.18R
DALLAS         CLOUDY    65  55  70 N6        30.04R
AMARILLO       TSTM      37  36  96 N29G38    30.31F FOG     WCI  25
$$




USA.gov is the U.S. government's official web portal to all federal, state and local government web resources and services.